Regional Weather Roundup
Issued by NWS Pendleton, OR

Home | Current Version | Previous Version | Text Only | Print | Product List | Glossary On
Versions: 1 2 3 4 5 6 7 8 9 10 11 12 13 14 15 16 17 18 19 20 21 22 23 24 25 26 27 28 29 30 31 32 33 34 35 36 37 38 39 40 41 42 43 44 45 46 47 48 49 50
000
ASUS46 KPDT 311210
RWRPDT
PENDLETON REGIONAL WEATHER ROUNDUP
NATIONAL WEATHER SERVICE PENDLETON OREGON
400 AM PST SAT JAN 31 2015

NOTE: FAIR INDICATES FEW OR NO CLOUDS BELOW 12,000 FEET WITH NO
SIGNIFICANT WEATHER AND/OR OBSTRUCTIONS TO VISIBILITY.

# INDICATES UNOFFICIAL STATION AND DATA

WAZ520-311310-
EAST SLOPES OF WASHINGTON CASCADES

CITY            SKY/WX      TMP DP  RH  WIND    PRES   REMARKS
#BUMPING DAM    N/A         25  N/A N/A E2      N/A
#CLE ELUM HS    N/A         29  28  96  CALM    30.16S
#CLE ELUM LAKE  N/A         28  27  96  CALM    30.29R
#CLIFFDEL 2NW   N/A         25  23  92  CALM    N/A
#EASTON DOT     N/A         27  26  96  E1      N/A
#GLENWOOD       N/A         31  30  96  CALM    30.26F
#MANASTASH CYN  N/A         27  24  88  CALM    30.16R
#NELSON         N/A         29  28  96  CALM    30.31R
#NELSON 3SW     N/A         27  26  96  CALM    30.51S
#NILE           N/A         27  25  92  CALM    29.53F
#PEOH POINT     N/A         36  24  61  W7      N/A
#RONALD 2NW     N/A         28  20  71  CALM    30.03S
#SNOWDEN        N/A         27  25  92  CALM    N/A
#SOUTH BLEWITT  N/A         24  23  96  CALM    N/A
#TEANAWAY 4NE   N/A         29  28  96  CALM    N/A
#TROUT LAKE 1NE N/A         30  29  96  CALM    30.27S
$$

WAZ521-311310-
SIMCOE HIGHLANDS

CITY            SKY/WX      TMP DP  RH  WIND    PRES   REMARKS
#BICKLETON HS   N/A         26  26  100 CALM    N/A
#SATUS PASS DOT N/A         27  25  92  CALM    N/A
#CENTERVILLE 4W N/A         32  30  92  N2      29.94S
#CENTERVILLE 1SWN/A         30  28  92  N2      30.24F
#GOLDENDALE     N/A         31  31  100 NW5     N/A
#GOLDENDALE 1NE N/A         31  29  92  CALM    N/A
#GOLDENDALE 1S  N/A         29  29  100 CALM    30.17F
#GOLDENDALE 5WNWN/A         30  29  96  CALM    30.26S
#GOODNOE HILLS  N/A         34  30  85  N10     N/A
#LYLE 6NE       N/A         32  31  96  CALM    30.24F
$$

WAZ026-311310-
KITTITAS VALLEY

CITY            SKY/WX      TMP DP  RH  WIND    PRES   REMARKS
ELLENSBURG AP   CLOUDY      33  29  85  CALM    30.24R
6HR MIN TEMP:   33; 6HR MAX TEMP:   35;

#ELLENSBURG CWU N/A         31  29  92  E1      30.25R
#ELLENSBURG 3NE N/A         30  29  96  CALM    30.24R
#ELLENSBURG 1E  N/A         31  28  88  CALM    N/A
#KITTITAS 4N    N/A         31  29  92  SW1     28.53S
#THORP 6N       N/A         28  27  96  E7      30.34R
$$

WAZ027-311310-
YAKIMA VALLEY

CITY            SKY/WX      TMP DP  RH  WIND    PRES   REMARKS
YAKIMA AIRPORT  CLOUDY      35  32  89  SW3     30.28R
6HR MIN TEMP:   35; 6HR MAX TEMP:   36;

YAKIMA-VAGABOND CLOUDY      33  30  89  SW2     30.26R
#DONALD 2NE     N/A         34  30  85  CALM    29.13R
#MABTON         N/A         36  34  92  VRB2    30.29R
#MOXEE 2E       N/A         34  31  89  CALM    30.25R
#NACHES 2SW     N/A         32  31  96  NE1     30.23R
#TERRACE HTS    N/A         33  32  96  CALM    30.29R
#TOPPENISH      N/A         35  32  89  CALM    30.24R
#WAPATO 4NE     N/A         34  30  85  CALM    29.13R
#WEST VALLEY    N/A         34  32  92  CALM    30.30R
#W YAKIMA       N/A         34  31  89  CALM    30.33R
#WHITE SWAN 5E  N/A         35  33  92  CALM    30.33R
#WILEY CITY 3W  N/A         30  24  78  CALM    30.27R
$$

WAZ028-311310-
LOWER COLUMBIA BASIN...WASHINGTON

CITY            SKY/WX      TMP DP  RH  WIND    PRES   REMARKS
PASCO           CLOUDY      37  35  92  N3      30.32R
6HR MIN TEMP:   37; 6HR MAX TEMP:   38;

PROSSER AWOS    N/A         36  36  100 E3      30.33R
RICHLAND AWOS   LGT DRIZZLE 37  34  89  CALM    30.32R
#BASIN CITY 5SW N/A         36  35  96  CALM    30.30R
#CONNELL 5N     N/A         33  32  96  NE1     30.33R
#CONNELL 5NW    N/A         34  33  96  CALM    30.29S
#ELTOPIA 6NW    N/A         35  34  96  E2      29.25R
#KAHLOTUS       N/A         33  32  96  W2      30.33R
#KENNEWICK 3S   N/A         35  33  92  CALM    30.33R
#PATERSON       N/A         36  34  92  NE3     30.30R
#PROSSER DOT    N/A         36  33  89  NE5     N/A
#PROSSER        N/A         35  31  85  CALM    30.32R
#SAGEMOOR 2W    N/A         37  35  92  CALM    30.18R
#TOUCHET 2S     N/A         37  35  92  CALM    30.30S
#WEST PASCO     N/A         38  34  85  CALM    30.28S
$$

WAZ029-311310-
FOOTHILLS OF THE BLUES...WASHINGTON

CITY            SKY/WX      TMP DP  RH  WIND    PRES   REMARKS
WALLA WALLA AP  CLOUDY      36  31  82  CALM    30.27S
6HR MIN TEMP:   35; 6HR MAX TEMP:   36;

#DAYTON SCHOOL  N/A         33  28  82  CALM    30.27R
#LOWDEN 2SE     N/A         37  35  92  CALM    30.27S
#PLEASANT VIEW 1N/A         31  30  96  CALM    30.38S
#PRESCOTT       N/A         35  33  92  CALM    30.31S
#SUDBURY        N/A         40  N/A N/A CALM    N/A
#WHITMAN COLLEGEN/A         36  33  89  CALM    30.37S
#WAITSBURG 5S   N/A         32  31  96  CALM    30.43R
#WAITSBURG 8N   N/A         32  28  85  CALM    30.15R
#WALLA WALLA 5E N/A         35  33  92  SE2     N/A
#WALLA WALLA U  N/A         37  34  89  CALM    30.32S
#WHITMAN MISSIONN/A         37  34  89  CALM    30.34S
$$

WAZ030-311310-
BLUE MOUNTAINS...WASHINGTON

CITY            SKY/WX      TMP DP  RH  WIND    PRES   REMARKS
#DIXIE 5SE      N/A         26  25  96  CALM    30.12S
#SKI BLUEWOOD   N/A         29  25  85  CALM    30.11S
$$

ORZ009-041-WAZ024-311310-
COLUMBIA RIVER GORGE

CITY            SKY/WX      TMP DP  RH  WIND    PRES   REMARKS
HOOD RIVER AP   CLOUDY      37  34  89  CALM    30.26F
THE DALLES AP   CLOUDY      39  33  79  NW9     30.26F
6HR MIN TEMP:   39; 6HR MAX TEMP:   40;

#ARLINGTON AIRPON/A         35  33  92  N5      30.02S
#ARLINGTON HS   N/A         38  33  82  S5      30.23R
#CELILO DOT     N/A         40  32  73  SW2     N/A
#LYLE           N/A         39  35  85  CALM    30.29F
#MARYHILL       N/A         35  33  92  CALM    N/A
#MOSIER 1S      N/A         36  30  79  CALM    30.27S
#MURDOCK        N/A         40  36  85  NW3     30.29F
#RUFUS DOT      N/A         40  31  70  NE1     N/A

$$

ORZ510-311310-
NORTH CENTRAL OREGON

CITY            SKY/WX      TMP DP  RH  WIND    PRES   REMARKS
#CHENOWITH 1W   N/A         31  31  100 NW5     N/A
#COW CYN RST AREN/A         31  31  100 S3      N/A
#DUFUR 9E       N/A         31  31  100 CALM    30.32F
#GRASS VALLEY 1SN/A         30  29  96  SW7     30.29F
#KENT DOT       N/A         31  26  81  S7      N/A
#MAUPIN SCHOOL  N/A         32  29  89  CALM    30.23F
#MORO SCHOOL    N/A         30  30  100 CALM    30.21S
#SHANIKO 5WSW   N/A         30  27  88  SE9     N/A
#SHANIKO 4NW    N/A         30  29  96  S8      30.16S
#TYGH VALLEY 2NEN/A         32  30  92  CALM    30.26F
#WAPANITIA AIRPON/A         30  29  96  CALM    30.27F
#WASCO DOT      N/A         36  33  89  CALM    N/A
#WASCO 5NE      N/A         33  32  96  CALM    30.29R
$$

ORZ511-311310-
CENTRAL OREGON

CITY            SKY/WX      TMP DP  RH  WIND    PRES   REMARKS
BEND AIRPORT    PTCLDY      25  25  100 CALM    30.19F
MADRAS AIRPORT  N/A         27  27  100 CALM    30.23F
PRINEVILLE AP   CLOUDY      30  30  100 E3      30.20F
REDMOND AIRPORT N/A         29  29  100 SE5     30.19F FOG
6HR MIN TEMP:   29; 6HR MAX TEMP:   34;

#BEND 1SW       N/A         28  27  96  W3      N/A
#BEND-AWBREY    N/A         34  29  82  S6      30.27F
#BEND-KIM LN    N/A         30  28  92  SW7     30.13F
#CROOKED RVR RANN/A         32  30  92  S3      30.28F
#CULVER         N/A         29  27  92  SW2     30.17R
#LAKE BILLY CHINN/A         33  29  85  CALM    30.28F
#POWELL BUTTE 3EN/A         30  30  100 E5      N/A
#POWELL BUTTE   N/A         28  26  92  W1      29.80F
#PRINEVILLE 3N  N/A         29  28  96  E2      30.23F
#WARM SPRINGS   N/A         38  34  85  CALM    30.21S

$$


ORZ509-311310-
EAST SLOPES OF OREGON CASCADES

CITY            SKY/WX      TMP DP  RH  WIND    PRES   REMARKS
#BLUE BOX PASS  N/A         41  -9  11  CALM    N/A
#CAMP SHERMAN   N/A         30  28  92  CALM    30.30S
#LA PINE DOT    N/A         26  24  92  SW1     N/A
#LA PINE 4NW    N/A         26  23  88  CALM    30.35F
#LAVA BUTTE DOT N/A         22  20  92  CALM    N/A
#MT BACHELOR-MIDN/A         35   2  24  NE12    N/A    WCI 27
#SISTERS AIRPOR N/A         28  28  100 CALM    30.17S
#SISTERS ODOT   N/A         28  N/A N/A CALM    N/A
#SISTERS 3N     N/A         29  26  88  CALM    30.19S
#SUNRIVER       N/A         27  27  100 S2      30.19F
#TUMALO 3W      N/A         26  25  96  CALM    30.16F
#WANOGA BUTTE D N/A         39   4  23  CALM    N/A

$$

ORZ044-311310-
LOWER COLUMBIA BASIN...OREGON

CITY            SKY/WX      TMP DP  RH  WIND    PRES   REMARKS
HERMISTON       CLOUDY      38  34  85  NE5     30.28R
6HR MIN TEMP:   37; 6HR MAX TEMP:   38;

#BOARDMAN SCHOOLN/A         38  35  89  CALM    30.31R
#BOARDMAN 8SW   N/A         37  35  92  N1      30.30R
#ECHO 8SW       N/A         37  37  100 CALM    30.25R
#IONE SCHOOL    N/A         34  23  64  CALM    30.24R
#IRRIGON 4NW    N/A         38  38  100 NE3     N/A
#UMATILLA SCHOOLN/A         35  35  100 CALM    30.34R
#UMATILLA       N/A         39  35  85  CALM    30.27R
$$

ORZ507-311310-
NORTHERN FOOTHILLS OF THE BLUES

CITY            SKY/WX      TMP DP  RH  WIND    PRES   REMARKS
PENDLETON AIRPT CLOUDY      35  32  89  CALM    30.25S
6HR MIN TEMP:   34; 6HR MAX TEMP:   35;

#ADAMS 3WNW     N/A         33  31  92  CALM    30.31F
#ATHENA         N/A         32  30  92  CALM    30.34S
#CAYUSE         N/A         33  31  92  E3      30.31S
#HELIX SCHOOL   N/A         33  32  96  CALM    30.32S
#HELIX 3N       N/A         32  31  96  CALM    30.19S
#HELIX 6SW      N/A         33  31  92  CALM    30.23
#HOLDMAN 5SE    N/A         35  33  92  CALM    30.25S
#HOLDMAN 6E     N/A         33  32  96  CALM    30.12S
#M-F FERNDALE   N/A         36  32  85  CALM    30.27F
#M-F GROVE ELEM N/A         35  29  78  CALM    30.25S
#M-FREEWATER 5SEN/A         34  31  89  CALM    30.25F
#PENDLETON DNTN N/A         37  30  75  CALM    29.05S
#PDT AQUATIC CTRN/A         37  33  85  SE2     30.25S
#PENDLETON 5NE  N/A         34  32  92  CALM    30.21S
#PDT SUNRIDGE   N/A         34  31  89  CALM    30.28S
#PENDLETON 7NW  N/A         36  32  85  CALM    27.73F
#TUTUILLA       N/A         35  32  89  E1      30.30S
#UMAPINE 2E     N/A         36  34  92  CALM    30.26S
#WESTON SCHOOL  N/A         31  28  88  SE1     30.21F

$$

ORZ508-311310-
SOUTHERN FOOTHILLS OF THE BLUES

CITY            SKY/WX      TMP DP  RH  WIND    PRES   REMARKS
LEXINGTON       CLOUDY      34  34  100 CALM    30.25R
#AJAX           N/A         33  28  82  CALM    30.12R
#CONDON SCHOOL  N/A         30  29  96  CALM    30.12S
#CONDON 5W      N/A         30  29  96  CALM    30.13R
#FOSSIL SCHOOL  N/A         32  28  85  CALM    30.15S
#HEPPNER EOC    N/A         29  28  96  E2      30.24S
#HEPPNER 4NE    N/A         27  26  96  CALM    30.30R
#LEXINGTON 2SE  N/A         33  30  89  SE3     30.20R
#MIKKALO        N/A         30  29  96  N1      30.21S
#OLEX 4N        N/A         32  31  96  CALM    30.24R
#RUGGS 5NE      N/A         29  23  78  E1      30.33S
#RUGGS 2SW      N/A         33  28  82  CALM    30.32S

$$

ORZ502-503-311310-
BLUE MOUNTAINS

CITY            SKY/WX      TMP DP  RH  WIND    PRES   REMARKS
MEACHAM         CLEAR       19  16  88  CALM    30.16S
6HR MIN TEMP:   19; 6HR MAX TEMP:   26;

#BATTLE MTN DOT N/A         25  25  100 SE6     N/A
#HARDMAN 10S    N/A         25  24  96  S2      30.42F
#HEPPNER 15SE   N/A         30  26  85  CALM    30.07S
#LADD CYN SMT   N/A         24  21  88  CALM    N/A
#LADD CREEK ODOTN/A         25  24  96  SW2     N/A
#LONG CREEK HS  N/A         25  25  100 CALM    30.16F
#N POWDER DOT   N/A         19  17  92  CALM    N/A
#PIKES PEAK     N/A         26  25  96  CALM    27.99S
#TOLLGATE       N/A         30  26  85  CALM    30.04S
#TROY SCHOOL    N/A         36  31  82  CALM    30.16R
#UKIAH          N/A         28  26  92  CALM    30.39F
#WESTON 4E      N/A         24  23  96  CALM    30.27F
$$

ORZ505-311310-
JOHN DAY BASIN

CITY            SKY/WX      TMP DP  RH  WIND    PRES   REMARKS
JOHN DAY        CLOUDY      31  29  92  CALM    30.23R
#JOHN DAY KJDY  N/A         35  27  72  CALM    30.20F
#DAYVILLE SCHOOLN/A         36  29  75  CALM    30.22R
#MITCHELL       N/A         25  25  100 CALM    30.33F
#MONUMENT HS    N/A         35  28  75  E2      30.25F
#MT. VERNON 5SE N/A         27  25  92  CALM    30.16R
#WINLOCK        N/A         32  29  89  W2      30.28F
$$

ORZ506-311310-
OCHOCO AND JOHN DAY HIGHLANDS

CITY            SKY/WX      TMP DP  RH  WIND    PRES   REMARKS
#BUCK CREEK DOT N/A         28  28  100 CALM    N/A
#HORSE RIDGE DO N/A         14  11  88  SE1     N/A
#KEYES SMT DOT  N/A         21  19  92  CALM    N/A
#PAULINA SCHOOL N/A         50  35  56  CALM    30.16S
#PINE MTN OBS   N/A         35  19  52  CALM    N/A
#PRAIRIE CITY   N/A         26  23  88  S2      30.45R
#SENECA         N/A         23  N/A N/A CALM    N/A
#SENECA 9NW     N/A         16  14  92  CALM    30.32R
$$

ORZ049-311310-
GRANDE RONDE VALLEY

CITY            SKY/WX      TMP DP  RH  WIND    PRES   REMARKS
LA GRANDE       CLEAR       25  16  68  CALM    30.18S
#COVE           N/A         23  18  81  CALM    30.03S
#COVE SCHOOL    N/A         26  24  92  CALM    30.14S
#COVE 6NW       N/A         21  19  92  CALM    30.36S
#ELGIN 3N       N/A         23  18  81  CALM    29.99S
#ELGIN 1E       N/A         26  22  85  CALM    N/A
#IMBLER SCHOOL  N/A         25  22  88  N5      30.14S
#ISLAND CITY 4N N/A         34  33  96  CALM    30.22S
#LADD CYN DOT   N/A         28  24  85  S3      N/A
#UNION 1S       N/A         22  20  92  CALM    30.23S
$$

ORZ050-311310-
WALLOWA COUNTY

CITY            SKY/WX      TMP DP  RH  WIND    PRES   REMARKS
#ENTERPRISE AP  N/A         27  23  85  CALM    30.09S
#ENTERPRISE HS  N/A         23  21  92  CALM    30.17S
#IMNAHA SCHOOL  N/A         35  30  82  SW3     30.22S
#IMNAHA 10S     N/A         22  20  92  SW1     30.18S
#JOSEPH 3N      N/A         23  14  68  CALM    30.17S
#JOSEPH 3W      N/A         28  15  58  CALM    29.96S
#LOSTINE        N/A         21  19  92  CALM    30.11S
#MT HOWARD 8000 N/A         28   8  42  W6      30.08F
#PROMISE 1S     N/A         24  23  96  CALM    30.40S
#SHEEP RDG 7000 N/A         32  10  39  CALM    30.18S
#WALLOWA SCHOOL N/A         22  21  96  CALM    31.31S



$$



USA.gov is the U.S. government's official web portal to all federal, state and local government web resources and services.